FW2567 Weather Reports


time (UTC)temp
F
wind
direction
speed
knots
gust
knots
rain 1hr
in
rain 24hr
in
rain mn
in
humidity
%
barometer
mb
20260509053031 53 272 0.9 3.5 0.00 0.00 0.00 71 1024.1
20260509051529 51 260 0.9 6.1 0.00 0.00 0.00 72 1024.0
20260509050031 51 275 0.9 4.3 0.00 0.00 0.00 71 1023.9
20260509043031 52 248 1.7 7.0 0.00 0.00 0.00 69 1023.8
20260509041530 52 231 1.7 6.1 0.00 0.00 0.00 67 1023.5
20260509034605 54 246 1.7 7.0 0.00 0.00 0.00 63 1023.2
20260509031531 56 257 2.6 9.6 0.00 0.00 0.00 59 1022.7
20260509030146 57 255 2.6 8.7 0.00 0.00 0.00 57 1022.6
20260509024530 59 250 2.6 6.1 0.00 0.00 0.00 54 1022.5
20260509023032 60 263 3.5 7.8 0.00 0.00 0.00 51 1022.4
20260509021529 62 259 3.5 13.0 0.00 0.00 0.00 49 1022.3
20260509020030 62 250 4.3 12.2 0.00 0.00 0.00 47 1022.2
20260509013104 64 261 5.2 13.0 0.00 0.00 0.00 44 1022.1
20260509011531 65 261 5.2 15.6 0.00 0.00 0.00 42 1022.1
20260509010030 66 265 7.0 13.0 0.00 0.00 0.00 40 1022.0
20260509004530 67 274 7.0 15.6 0.00 0.00 0.00 39 1021.9
20260509003030 68 276 4.3 12.2 0.00 0.00 0.00 37 1021.9
20260509001530 69 258 6.1 18.2 0.00 0.00 0.00 35 1021.6
20260509000058 69 251 3.5 10.4 0.00 0.00 0.00 34 1021.5
20260508233030 69 246 5.2 20.9 0.00 0.00 0.00 34 1021.2
20260508231528 69 267 6.1 20.0 0.00 0.00 0.00 33 1021.2
20260508230029 69 276 5.2 14.8 0.00 0.00 0.00 32 1021.1
20260508224605 69 260 7.8 15.6 0.00 0.00 0.00 30 1021.1
20260508223030 69 264 7.0 16.5 0.00 0.00 0.00 30 1021.0
20260508221531 69 264 7.0 17.4 0.00 0.00 0.00 30 1021.0
20260508220028 69 258 4.3 14.8 0.00 0.00 0.00 31 1021.0
20260508214617 67 256 5.2 15.6 0.00 0.00 0.00 30 1021.1
20260508213103 66 243 7.0 16.5 0.00 0.00 0.00 31 1021.1
20260508210029 66 240 5.2 13.9 0.00 0.00 0.00 33 1020.9
20260508204530 66 264 6.1 13.9 0.00 0.00 0.00 34 1020.9
20260508201605 66 263 5.2 13.0 0.00 0.00 0.00 33 1020.9
20260508191529 65 273 7.0 18.2 0.00 0.00 0.00 37 1020.7
20260508190104 64 286 7.8 17.4 0.00 0.00 0.00 36 1020.6
20260508184529 64 284 7.8 17.4 0.00 0.00 0.00 37 1020.6
20260508183030 63 286 5.2 15.6 0.00 0.00 0.00 49 1020.6
20260508181606 59 69 0.9 3.5 0.00 0.00 0.00 63 1020.5
20260508180030 56 213 0.0 2.6 0.00 0.00 0.00 66 1020.6
20260508174529 56 226 0.9 2.6 0.00 0.00 0.00 66 1020.6
20260508173030 56 271 0.9 4.3 0.00 0.00 0.00 65 1020.3
20260508170030 55 65 1.7 3.5 0.00 0.00 0.00 64 1020.1
20260508164530 54 47 2.6 6.1 0.00 0.00 0.00 64 1019.9
20260508161605 56 19 7.0 13.9 0.00 0.00 0.00 62 1020.0
20260508160105 57 8 6.1 14.8 0.00 0.00 0.00 60 1020.0
20260508154603 57 344 6.1 12.2 0.00 0.00 0.00 60 1020.1
20260508153108 59 320 5.2 12.2 0.00 0.00 0.00 59 1020.0
20260508151644 58 336 3.5 14.8 0.00 0.00 0.00 61 1019.9
20260508150030 57 332 7.0 13.9 0.00 0.00 0.00 62 1019.7
20260508144530 55 1 3.5 9.6 0.00 0.00 0.00 62 1019.6
20260508143032 54 357 5.2 11.3 0.00 0.00 0.00 61 1019.3
20260508141527 54 351 4.3 11.3 0.00 0.00 0.00 61 1019.2
20260508140032 54 342 5.2 11.3 0.00 0.00 0.00 63 1019.1
20260508134530 53 316 4.3 9.6 0.00 0.00 0.00 65 1019.0
20260508133030 53 321 2.6 13.0 0.00 0.00 0.00 67 1018.9
20260508131531 52 343 4.3 9.6 0.00 0.00 0.00 71 1018.7
20260508130032 50 341 4.3 11.3 0.00 0.00 0.00 76 1018.6
20260508124532 45 349 5.2 11.3 0.00 0.00 0.00 82 1018.4
20260508123032 41 322 1.7 7.0 0.00 0.00 0.00 81 1018.3
20260508121530 41 136 0.0 2.6 0.00 0.00 0.00 79 1018.2
20260508120032 41 179 0.9 2.6 0.00 0.00 0.00 77 1018.1
20260508114531 42 157 0.0 3.5 0.00 0.00 0.00 75 1018.1
20260508113146 42 187 0.9 5.2 0.00 0.00 0.00 75 1018.0
20260508111605 42 143 0.9 4.3 0.00 0.00 0.00 75 1017.9
20260508104530 41 131 0.9 4.3 0.00 0.00 0.00 76 1017.8
20260508103107 40 125 0.0 3.5 0.00 0.00 0.00 78 1017.8
20260508101534 39 149 0.9 4.3 0.00 0.00 0.00 79 1017.8
20260508100032 39 109 0.0 4.3 0.00 0.00 0.00 78 1017.8
20260508094532 39 123 0.0 5.2 0.00 0.00 0.00 75 1017.8
20260508091530 41 153 0.9 4.3 0.00 0.00 0.00 73 1017.8
20260508090030 41 150 1.7 3.5 0.00 0.00 0.00 70 1017.8
20260508083031 44 152 3.5 7.0 0.00 0.00 0.00 68 1017.8
20260508081530 43 148 3.5 6.1 0.00 0.00 0.00 69 1017.9
20260508074532 42 71 0.9 3.5 0.00 0.00 0.00 70 1017.9
20260508073032 42 151 1.7 3.5 0.00 0.00 0.00 68 1018.0
20260508071605 44 121 0.9 3.5 0.00 0.00 0.00 66 1018.0
20260508070030 44 146 3.5 6.1 0.00 0.00 0.00 65 1018.0
20260508064531 45 163 1.7 4.3 0.00 0.00 0.00 64 1018.1
20260508060029 45 185 0.9 4.3 0.00 0.00 0.00 62 1018.3
20260508054532 46 158 1.7 5.2 0.00 0.00 0.00 59 1018.2